Retour au catalogue

HULIANWANG DIGUI-39

ActifCommunicationsPO
NORAD 64960·PAYLOAD·🇨🇳 China

Lancé Jul 27, 2025 depuis Taiyuan Satellite Launch Center

Loading…

Prochains Passages (prochaines 24 heures)

TLE

FraisSource: Space-Track

Époque: Sep 14, 2026, 23:25 UTC

1 64960U 25159E   26257.97626025 -.00000064  00000-0 -18261-3 0  9999
2 64960  86.4890 252.0417 0002077  88.2946 271.8425 13.24403689 55016

Suivez HULIANWANG DIGUI-39 en temps réel avec AllMySat

Download on the App Store